Content
SEND FEEDBACK

Daily
Averages
Monthly
Summary
United States of America

ST. LOUIS, MISSOURI


Home > North America > United States > Missouri
Elevation: 535 feet     Latitude: 38 45N     Longitude: 090 22W

WEATHER
 
SELECT A DAY
Number of Records: 196,698;   Date Range: 1/1/95 - 9/22/14
 
SHARE

PRINT THIS DATA

[ ← Previous Day ]
WEATHER ALMANAC - MAY 23, 2013
[ Next Day → ]
[ °C ]   °F
Weather ElementAverageHighLow
Temperature62.8 °F66.2 °F (4:24 pm)57 °F (10:54 pm)
Dewpoint53.6 °F57.9 °F (3:54 pm)48.9 °F (6:54 am)
Humidity72.3 %84 % (3:54 pm)62 % (8:54 am)
Barometer30.07 in30.22 in (11:54 pm)29.88 in (1:54 am)
Wind Speed9.3 mph15 mph (4:31 pm)
Wind Gust21.9 mph (8:54 am)
Weather ElementAverage
Visibility9.8 mi
Wind DirectionWNW (275.9 °)

Weather ElementTotal
Precipitation---
Heating Degree Days3.4 (Base 65)
Growing Degree Days11.6 (Base 50)
Averaged from 32 records on May 23, 2013
WEATHER CONDITIONS BREAKOUT
WIND DIRECTION BREAKOUT
WEATHER BY HOUR - MAY 23, 2013
[ °C ]   °F
Local TimeTemperatureDewpointHumidityBarometerVisibilityWind DirectionWind SpeedGust SpeedPrecipitationEventsConditions
1:54 AM62.1 °F54.0 °F75 %29.88 in10.0 miWest (260°)5.8 mphOvercast
2:54 AM62.1 °F54.0 °F75 %29.88 in10.0 miWest (260°)4.6 mphOvercast
3:54 AM61.0 °F54.0 °F78 %29.89 in10.0 miWest (260°)4.6 mphOvercast
4:54 AM62.1 °F52.0 °F70 %29.90 in10.0 miWest (280°)8.1 mphOvercast
5:54 AM61.0 °F51.1 °F70 %29.91 in10.0 miWest (280°)8.1 mphMostly Cloudy
6:54 AM61.0 °F48.9 °F64 %29.95 in10.0 miWNW (290°)13.8 mphMostly Cloudy
7:54 AM61.0 °F48.9 °F64 %29.96 in10.0 miWest (280°)12.7 mphMostly Cloudy
8:54 AM62.1 °F48.9 °F62 %29.99 in10.0 miWNW (290°)13.8 mph21.9 mphMostly Cloudy
9:35 AM62.6 °F51.8 °F68 %30.01 in10.0 miWest (280°)13.8 mphOvercast
9:54 AM62.1 °F51.1 °F67 %30.01 in10.0 miWNW (290°)12.7 mph20.7 mphOvercast
10:54 AM63.0 °F52.0 °F67 %30.00 in10.0 miNW (310°)12.7 mph19.6 mphOvercast
11:54 AM63.0 °F54.0 °F72 %30.05 in10.0 miWNW (290°)13.8 mphOvercast
12:54 PM63.0 °F54.0 °F72 %30.07 in10.0 miWNW (300°)12.7 mphOvercast
1:54 PM64.0 °F55.0 °F73 %30.08 in10.0 miWest (270°)10.4 mphOvercast
2:54 PM64.0 °F55.9 °F75 %30.10 in7.0 miWNW (300°)11.5 mphOvercast
3:50 PM62.6 °F57.2 °F82 %30.12 in9.0 miWest (280°)6.9 mph0.00 inRainLight Rain
3:54 PM63.0 °F57.9 °F84 %30.11 in7.0 miWNW (300°)6.9 mph0.00 inOvercast
4:24 PM66.2 °F57.2 °F73 %30.12 in10.0 miNNW (330°)10.4 mph0.00 inOvercast
4:31 PM66.2 °F55.4 °F68 %30.11 in10.0 miNorth (360°)15.0 mph0.00 inOvercast
4:38 PM64.4 °F55.4 °F73 %30.12 in10.0 miNorth (350°)11.5 mph0.00 inOvercast
4:54 PM64.9 °F55.0 °F70 %30.12 in10.0 miNNW (330°)8.1 mph0.00 inOvercast
5:01 PM64.4 °F55.4 °F73 %30.13 in10.0 miNW (320°)10.4 mphOvercast
5:10 PM64.4 °F55.4 °F73 %30.13 in10.0 miNNW (330°)11.5 mphOvercast
5:52 PM64.4 °F55.4 °F73 %30.14 in10.0 miNorth (350°)8.1 mph0.00 inOvercast
5:54 PM64.0 °F55.0 °F73 %30.14 in10.0 miNorth (350°)8.1 mph0.00 inOvercast
6:54 PM64.0 °F54.0 °F70 %30.15 in10.0 miNorth (360°)6.9 mphOvercast
7:36 PM64.4 °F53.6 °F68 %30.16 in10.0 miNorth (350°)3.5 mphOvercast
7:54 PM64.0 °F54.0 °F70 %30.16 in10.0 miNorth (360°)4.6 mphOvercast
8:54 PM62.1 °F53.1 °F72 %30.16 in10.0 miNNE (30°)5.8 mphPartly Cloudy
9:54 PM60.1 °F53.1 °F78 %30.18 in10.0 miNE (50°)4.6 mphClear
10:54 PM57.0 °F52.0 °F83 %30.21 in10.0 miEast (80°)4.6 mphClear
11:54 PM57.9 °F51.1 °F78 %30.22 in10.0 miENE (60°)12.7 mphClear
Hourly data recorded from KSUS, located miles away from St. Louis, Missouri







STORIES FROM OUR PARTNERS